GEFSSE_prec_meanprecacc_240.txt.gz
Total_Precipitation_Accumulation
0.94 1.02 1.30 1.16 1.03 1.01 1.10 1.14 1.03 1.03 1.11 1.14 1.13 1.23 1.44 1.60 1.65 1.63 1.67 1.73 1.87 1.94 1.85 1.77 1.75 1.88 1.92 1.82 1.58 1.41 1.32 1.42 1.36 1.22 1.08 1.10 1.20 1.43 1.79 1.94 1.84 1.31 1.23
0.72 0.92 1.12 1.03 0.95 0.97 0.98 0.96 0.92 0.93 1.04 1.11 1.14 1.25 1.39 1.45 1.48 1.49 1.59 1.74 1.88 1.90 1.77 1.63 1.56 1.74 1.78 1.72 1.52 1.36 1.27 1.38 1.35 1.35 1.20 1.02 1.23 1.61 1.89 1.93 1.99 1.37 1.27
0.51 0.74 0.82 0.87 0.81 0.82 0.83 0.84 0.94 1.03 1.11 1.11 1.15 1.22 1.29 1.29 1.36 1.45 1.55 1.62 1.66 1.51 1.41 1.39 1.43 1.47 1.45 1.48 1.42 1.33 1.33 1.30 1.39 1.57 1.69 1.09 0.95 1.56 1.76 1.80 1.69 1.25 1.11
0.49 0.62 0.64 0.69 0.66 0.64 0.68 0.78 0.91 1.00 1.06 1.09 1.15 1.18 1.16 1.24 1.35 1.40 1.38 1.35 1.26 1.05 1.00 1.09 1.19 1.22 1.25 1.22 1.23 1.31 1.37 1.40 1.61 2.01 2.08 1.32 0.91 1.24 1.52 1.46 1.31 1.12 0.98
0.47 0.54 0.61 0.59 0.54 0.52 0.54 0.60 0.70 0.80 0.87 0.93 0.99 1.04 1.15 1.22 1.26 1.25 1.16 1.13 1.07 0.98 0.88 0.89 1.04 1.17 1.18 1.12 1.14 1.30 1.39 1.49 1.82 1.98 1.73 1.59 1.44 1.41 1.44 1.36 1.24 1.12 1.06
0.29 0.36 0.46 0.48 0.43 0.44 0.53 0.58 0.60 0.68 0.72 0.79 0.91 1.08 1.16 1.20 1.26 1.18 1.04 0.99 0.97 0.91 0.83 0.86 1.06 1.24 1.26 1.13 1.12 1.33 1.48 1.73 1.86 1.48 1.30 1.36 1.45 1.54 1.47 1.53 1.52 1.35 1.25
0.18 0.22 0.32 0.45 0.41 0.40 0.44 0.54 0.63 0.76 0.83 0.86 0.94 1.02 1.11 1.15 1.07 0.97 0.87 0.81 0.80 0.78 0.73 0.82 1.04 1.28 1.41 1.35 1.30 1.42 1.53 1.78 1.61 1.29 1.19 1.36 1.35 1.32 1.42 1.60 1.81 1.67 1.43
0.13 0.16 0.25 0.41 0.41 0.37 0.39 0.47 0.60 0.75 0.82 0.85 0.85 0.81 0.81 0.79 0.75 0.72 0.65 0.63 0.63 0.55 0.59 0.73 0.96 1.07 1.31 1.49 1.49 1.52 1.50 1.43 1.10 1.07 1.02 1.10 0.92 1.07 1.34 1.56 1.76 1.72 1.48
0.19 0.17 0.24 0.31 0.34 0.33 0.38 0.45 0.52 0.53 0.55 0.55 0.55 0.56 0.57 0.59 0.54 0.51 0.51 0.53 0.53 0.57 0.68 0.85 0.99 1.01 1.28 1.47 1.47 1.43 1.51 1.33 1.01 1.08 1.05 1.17 1.09 1.28 1.61 1.69 1.65 1.69 1.55
0.42 0.35 0.38 0.36 0.38 0.36 0.33 0.38 0.45 0.46 0.44 0.46 0.47 0.50 0.48 0.49 0.48 0.48 0.47 0.53 0.52 0.57 0.73 1.00 1.20 1.16 1.32 1.44 1.52 1.64 1.77 1.44 1.14 1.13 1.22 1.12 1.21 1.51 1.86 1.93 1.85 1.83 1.76
0.82 0.70 0.59 0.54 0.45 0.40 0.34 0.36 0.47 0.51 0.53 0.53 0.55 0.57 0.62 0.65 0.60 0.65 0.58 0.70 0.71 0.75 0.82 1.02 1.29 1.52 1.56 1.49 1.69 1.86 1.79 1.54 1.56 1.46 1.40 1.21 1.31 1.66 1.96 2.02 2.05 2.08 1.99
1.04 0.96 0.86 0.80 0.56 0.46 0.46 0.61 0.73 0.66 0.72 0.80 0.84 0.84 0.96 1.08 1.02 0.73 0.81 1.06 1.15 1.28 1.28 1.35 1.57 1.70 1.63 1.68 2.20 2.38 1.74 1.65 1.62 1.60 1.75 1.58 1.64 2.00 2.29 2.16 2.07 2.16 2.11
1.25 1.00 0.99 1.15 0.97 0.82 0.88 0.82 0.85 0.90 1.05 1.09 1.03 1.07 1.26 1.09 0.91 0.91 1.05 1.27 1.46 1.61 1.80 2.08 2.27 2.02 2.12 2.38 2.56 2.36 1.77 1.50 1.57 1.54 1.81 1.86 1.93 2.32 2.68 2.53 2.32 2.31 2.29
1.43 1.13 1.01 1.11 1.25 1.18 1.07 1.04 1.01 0.98 1.07 1.13 1.28 1.29 1.41 1.37 1.32 1.38 1.63 1.75 1.93 2.08 2.44 2.51 2.85 2.65 2.43 2.31 2.36 2.23 1.96 1.81 1.71 1.87 2.04 1.77 1.93 2.41 2.91 2.93 2.76 2.61 2.46
1.72 1.49 1.30 1.19 1.35 1.37 1.33 1.28 1.17 1.17 1.19 1.38 1.53 1.57 1.64 1.72 1.88 2.03 2.03 2.23 2.21 2.29 2.49 2.83 2.88 3.09 3.16 3.14 2.84 2.47 2.32 2.18 2.01 2.14 2.25 2.17 2.09 2.30 2.80 3.22 3.13 2.91 2.62
2.17 2.00 1.72 1.49 1.40 1.44 1.45 1.49 1.54 1.51 1.66 1.76 1.89 1.93 2.10 2.29 2.45 2.66 2.70 2.72 2.50 2.48 2.74 3.00 3.11 3.64 3.61 3.48 3.00 2.69 2.43 2.34 2.14 2.06 2.27 2.42 2.14 2.10 2.47 3.14 3.45 3.24 3.02
2.45 2.42 2.26 2.10 2.03 2.07 2.19 2.12 2.00 2.12 2.20 2.31 2.41 2.44 2.52 2.64 2.86 3.02 2.98 2.87 2.81 2.79 2.99 3.20 3.37 3.55 3.40 3.27 3.11 2.88 2.65 2.40 2.10 2.09 2.14 2.35 2.25 2.12 2.36 2.74 3.17 3.25 3.28
2.58 2.89 2.92 2.72 2.85 2.95 3.07 2.99 2.74 2.73 2.74 2.75 2.73 2.74 2.76 2.87 3.01 3.32 3.13 2.95 3.23 3.07 3.24 3.66 3.68 3.71 3.69 3.48 3.28 3.02 2.78 2.53 2.08 1.97 1.96 2.25 2.59 2.23 2.36 2.67 2.84 2.94 3.36
2.74 3.20 3.39 3.47 3.64 3.64 3.65 3.58 3.51 3.39 3.26 3.01 3.03 3.00 2.85 2.83 2.92 3.21 3.10 3.13 3.19 3.46 3.50 3.27 3.78 3.87 3.79 3.59 3.05 2.86 2.49 2.29 2.10 1.88 1.98 2.06 2.41 2.30 2.33 2.41 2.60 2.77 3.33
3.15 3.53 4.00 4.16 4.22 3.97 3.83 3.78 3.64 3.40 3.24 3.10 3.09 2.99 2.75 2.76 2.80 3.20 3.02 2.98 3.07 3.41 3.41 3.40 3.76 3.75 3.51 3.50 2.86 2.58 2.38 1.98 1.96 2.00 1.83 1.96 2.11 1.83 1.97 2.24 2.69 2.41 2.63
3.70 3.95 4.22 4.59 4.68 4.42 4.35 4.29 4.17 3.85 3.71 3.39 2.99 2.64 2.53 2.53 2.68 3.08 2.82 3.09 3.01 3.11 3.16 3.19 3.46 3.58 3.26 3.31 3.29 2.83 2.21 1.79 1.76 1.76 1.78 1.87 1.83 1.89 2.26 2.61 2.78 2.75 2.56
3.53 4.01 4.33 4.31 4.19 3.91 4.00 4.28 4.51 4.48 3.99 3.41 3.05 2.90 2.54 2.45 2.53 2.68 2.87 2.75 2.77 2.94 2.96 3.00 3.28 3.25 2.88 2.99 3.22 3.24 2.62 2.27 1.82 1.40 1.70 1.80 1.80 2.05 2.18 2.25 2.59 2.88 2.84
2.96 3.46 3.59 3.44 3.35 3.19 3.26 3.57 3.79 4.02 3.76 3.39 3.08 2.83 2.54 2.43 2.36 2.43 2.60 2.61 2.60 2.51 2.71 2.90 2.85 2.86 2.76 2.72 2.82 3.20 2.92 2.50 2.06 1.58 1.43 1.53 1.78 1.99 2.01 2.15 2.18 2.41 2.51
2.11 2.35 2.52 2.69 2.76 2.75 2.79 2.98 3.18 3.34 3.27 3.10 2.99 2.75 2.49 2.24 2.14 2.16 2.22 2.22 2.27 2.27 2.54 2.35 2.38 2.62 2.79 2.65 2.62 2.61 2.67 2.73 2.58 1.99 1.52 1.46 1.68 1.83 1.83 1.78 1.92 2.14 2.16
1.82 2.03 2.24 2.52 2.65 2.70 2.66 2.75 2.96 3.22 3.18 2.93 2.71 2.64 2.47 2.25 2.01 1.91 2.04 2.08 2.08 2.06 2.16 2.21 2.47 2.46 2.55 2.51 2.48 2.48 2.62 2.66 2.49 2.29 1.92 1.76 1.71 1.53 1.55 1.64 1.76 1.97 2.10
1.65 1.87 2.08 2.30 2.26 2.32 2.40 2.44 2.46 2.55 2.63 2.52 2.38 2.31 2.15 1.98 1.83 1.81 1.89 2.02 1.98 1.95 2.08 2.14 2.21 2.23 2.29 2.36 2.30 2.29 2.51 2.41 2.34 2.43 2.11 1.94 1.85 1.58 1.56 1.60 1.62 1.76 1.84

GEFSSE_prec_meanprecacc_246.txt.gz
Total_Precipitation_Accumulation
1.17 1.29 1.59 1.37 1.21 1.16 1.23 1.29 1.21 1.21 1.31 1.38 1.36 1.42 1.58 1.72 1.77 1.81 1.90 1.98 2.10 2.15 2.02 1.95 1.88 2.00 2.04 1.93 1.67 1.49 1.40 1.49 1.43 1.29 1.13 1.15 1.25 1.49 1.85 1.99 1.89 1.35 1.28
0.93 1.20 1.41 1.24 1.11 1.11 1.11 1.11 1.09 1.10 1.20 1.27 1.29 1.39 1.52 1.57 1.60 1.62 1.73 1.94 2.09 2.08 1.94 1.80 1.71 1.87 1.89 1.83 1.63 1.46 1.36 1.47 1.43 1.43 1.26 1.08 1.30 1.68 1.96 2.00 2.04 1.41 1.32
0.66 0.93 1.00 1.07 0.98 1.00 1.05 1.12 1.24 1.23 1.26 1.25 1.29 1.36 1.40 1.42 1.49 1.56 1.66 1.76 1.83 1.67 1.56 1.52 1.55 1.60 1.56 1.57 1.51 1.41 1.39 1.36 1.46 1.64 1.76 1.14 0.99 1.61 1.82 1.85 1.73 1.31 1.16
0.57 0.72 0.74 0.82 0.79 0.78 0.88 1.07 1.18 1.25 1.28 1.27 1.31 1.34 1.31 1.39 1.48 1.51 1.49 1.47 1.39 1.18 1.12 1.21 1.31 1.35 1.35 1.30 1.31 1.38 1.42 1.45 1.66 2.07 2.13 1.36 0.95 1.28 1.58 1.51 1.36 1.17 1.02
0.54 0.64 0.72 0.69 0.64 0.62 0.71 0.86 1.02 1.15 1.16 1.18 1.22 1.26 1.33 1.38 1.38 1.38 1.30 1.25 1.18 1.10 0.99 1.00 1.17 1.28 1.28 1.21 1.23 1.35 1.44 1.54 1.86 2.02 1.77 1.64 1.50 1.47 1.50 1.43 1.30 1.18 1.10
0.35 0.44 0.56 0.60 0.54 0.56 0.70 0.84 0.90 0.98 1.02 1.08 1.20 1.36 1.38 1.39 1.41 1.33 1.17 1.10 1.09 1.03 0.92 0.95 1.18 1.34 1.34 1.21 1.20 1.39 1.53 1.78 1.90 1.53 1.35 1.42 1.53 1.61 1.54 1.59 1.58 1.41 1.30
0.21 0.29 0.42 0.56 0.52 0.51 0.59 0.75 0.90 1.02 1.10 1.18 1.29 1.29 1.29 1.33 1.25 1.13 0.98 0.90 0.90 0.88 0.83 0.90 1.12 1.35 1.47 1.41 1.34 1.48 1.59 1.83 1.65 1.33 1.25 1.43 1.42 1.37 1.48 1.66 1.88 1.72 1.46
0.14 0.19 0.31 0.50 0.52 0.51 0.53 0.64 0.85 1.04 1.21 1.26 1.17 1.05 1.05 1.04 0.95 0.86 0.76 0.72 0.71 0.63 0.66 0.80 1.01 1.10 1.34 1.52 1.52 1.56 1.54 1.48 1.15 1.12 1.09 1.17 0.98 1.12 1.40 1.63 1.82 1.76 1.51
0.20 0.18 0.25 0.35 0.40 0.41 0.49 0.58 0.70 0.77 0.87 0.91 0.89 0.88 0.90 0.88 0.75 0.69 0.63 0.62 0.60 0.65 0.74 0.90 1.03 1.05 1.30 1.51 1.50 1.46 1.55 1.39 1.05 1.13 1.10 1.22 1.13 1.33 1.65 1.74 1.69 1.74 1.58
0.42 0.36 0.39 0.38 0.42 0.41 0.38 0.47 0.57 0.61 0.65 0.71 0.74 0.75 0.70 0.67 0.65 0.63 0.57 0.62 0.59 0.65 0.79 1.04 1.22 1.19 1.35 1.49 1.56 1.67 1.82 1.52 1.19 1.19 1.28 1.17 1.26 1.57 1.93 1.99 1.89 1.87 1.79
0.82 0.70 0.60 0.56 0.47 0.41 0.36 0.39 0.54 0.58 0.62 0.64 0.67 0.68 0.70 0.73 0.69 0.74 0.66 0.80 0.79 0.83 0.88 1.08 1.33 1.57 1.61 1.55 1.75 1.92 1.86 1.64 1.64 1.53 1.47 1.26 1.37 1.75 2.05 2.08 2.09 2.12 2.02
1.04 0.96 0.86 0.80 0.57 0.47 0.46 0.63 0.76 0.69 0.76 0.85 0.90 0.90 1.01 1.12 1.08 0.79 0.89 1.16 1.23 1.35 1.34 1.41 1.63 1.74 1.69 1.77 2.31 2.46 1.86 1.79 1.71 1.67 1.81 1.64 1.72 2.09 2.38 2.22 2.11 2.20 2.15
1.25 1.00 0.99 1.16 0.98 0.83 0.89 0.84 0.86 0.92 1.08 1.11 1.05 1.10 1.30 1.12 0.95 0.96 1.10 1.32 1.51 1.65 1.84 2.11 2.29 2.05 2.16 2.47 2.71 2.50 1.93 1.65 1.67 1.62 1.89 1.94 2.02 2.41 2.77 2.59 2.36 2.35 2.33
1.44 1.13 1.01 1.12 1.27 1.20 1.09 1.07 1.02 1.00 1.09 1.15 1.30 1.30 1.43 1.40 1.35 1.41 1.67 1.78 1.95 2.11 2.49 2.55 2.90 2.69 2.46 2.40 2.52 2.39 2.12 1.97 1.84 1.97 2.16 1.87 2.02 2.51 3.01 3.01 2.83 2.67 2.51
1.73 1.50 1.31 1.21 1.36 1.40 1.37 1.32 1.20 1.19 1.22 1.41 1.56 1.60 1.67 1.75 1.92 2.06 2.07 2.28 2.24 2.32 2.53 2.88 2.93 3.14 3.21 3.22 2.98 2.64 2.53 2.36 2.15 2.25 2.35 2.25 2.19 2.40 2.91 3.32 3.21 2.98 2.69
2.19 2.02 1.73 1.50 1.42 1.47 1.49 1.54 1.60 1.57 1.73 1.80 1.93 1.98 2.13 2.32 2.50 2.71 2.73 2.76 2.54 2.51 2.79 3.05 3.17 3.70 3.67 3.54 3.10 2.83 2.61 2.52 2.30 2.19 2.37 2.50 2.22 2.20 2.57 3.26 3.54 3.33 3.12
2.47 2.44 2.28 2.11 2.04 2.09 2.21 2.16 2.04 2.18 2.28 2.37 2.46 2.50 2.57 2.67 2.91 3.07 3.01 2.90 2.86 2.83 3.03 3.24 3.42 3.61 3.45 3.33 3.17 2.97 2.78 2.54 2.22 2.19 2.23 2.43 2.33 2.21 2.46 2.86 3.29 3.37 3.42
2.59 2.90 2.94 2.74 2.87 2.97 3.10 3.03 2.77 2.77 2.79 2.82 2.79 2.81 2.83 2.91 3.06 3.38 3.17 3.00 3.30 3.10 3.27 3.72 3.75 3.79 3.77 3.56 3.36 3.08 2.86 2.62 2.15 2.03 2.03 2.33 2.70 2.33 2.46 2.81 3.00 3.09 3.53
2.75 3.21 3.41 3.49 3.66 3.66 3.68 3.62 3.54 3.42 3.29 3.06 3.08 3.05 2.90 2.88 2.97 3.27 3.16 3.22 3.28 3.50 3.55 3.31 3.85 3.96 3.88 3.70 3.13 2.92 2.55 2.36 2.15 1.93 2.04 2.13 2.50 2.37 2.41 2.52 2.76 2.93 3.50
3.16 3.54 4.01 4.17 4.24 4.00 3.87 3.82 3.67 3.43 3.27 3.13 3.13 3.04 2.80 2.83 2.86 3.27 3.11 3.07 3.14 3.47 3.48 3.47 3.83 3.84 3.61 3.60 2.91 2.64 2.44 2.03 2.01 2.07 1.89 2.01 2.16 1.88 2.03 2.33 2.81 2.53 2.78
3.71 3.96 4.23 4.61 4.71 4.46 4.39 4.33 4.21 3.89 3.74 3.42 3.03 2.67 2.57 2.57 2.73 3.15 2.87 3.17 3.08 3.19 3.24 3.26 3.52 3.64 3.34 3.39 3.38 2.91 2.27 1.83 1.80 1.80 1.83 1.92 1.88 1.94 2.32 2.68 2.86 2.85 2.68
3.54 4.02 4.34 4.33 4.21 3.94 4.03 4.32 4.54 4.50 4.02 3.43 3.07 2.92 2.57 2.48 2.56 2.72 2.92 2.81 2.83 3.02 3.05 3.08 3.36 3.32 2.96 3.08 3.31 3.34 2.69 2.33 1.87 1.43 1.75 1.85 1.86 2.11 2.22 2.29 2.63 2.95 2.94
2.97 3.47 3.60 3.45 3.37 3.22 3.28 3.59 3.81 4.04 3.78 3.41 3.10 2.86 2.57 2.45 2.39 2.47 2.63 2.65 2.65 2.56 2.79 2.99 2.93 2.95 2.86 2.84 2.93 3.29 3.01 2.60 2.15 1.65 1.49 1.58 1.83 2.03 2.05 2.19 2.23 2.47 2.60
2.11 2.36 2.53 2.71 2.78 2.77 2.80 2.98 3.19 3.35 3.28 3.12 3.00 2.76 2.51 2.26 2.17 2.20 2.26 2.27 2.32 2.31 2.60 2.41 2.42 2.70 2.90 2.76 2.70 2.70 2.74 2.82 2.70 2.12 1.62 1.54 1.74 1.87 1.88 1.83 1.97 2.21 2.23
1.82 2.03 2.24 2.53 2.66 2.71 2.67 2.76 2.97 3.23 3.20 2.94 2.72 2.66 2.49 2.27 2.03 1.93 2.07 2.12 2.12 2.10 2.21 2.27 2.54 2.55 2.65 2.62 2.57 2.56 2.69 2.74 2.58 2.39 2.04 1.87 1.79 1.61 1.61 1.71 1.84 2.05 2.16
1.65 1.88 2.10 2.31 2.27 2.33 2.41 2.44 2.46 2.56 2.65 2.53 2.40 2.33 2.17 2.00 1.85 1.84 1.92 2.05 2.01 1.99 2.13 2.21 2.29 2.32 2.40 2.46 2.41 2.38 2.59 2.49 2.44 2.53 2.22 2.06 1.97 1.68 1.64 1.69 1.72 1.87 1.94

GEFSSE_prec_meanprecacc_252.txt.gz
Total_Precipitation_Accumulation
1.36 1.46 1.72 1.46 1.31 1.27 1.37 1.45 1.35 1.37 1.47 1.53 1.60 1.64 1.72 1.83 1.89 1.93 2.02 2.09 2.20 2.27 2.17 2.09 2.00 2.11 2.14 2.06 1.80 1.61 1.49 1.55 1.48 1.34 1.19 1.21 1.31 1.53 1.89 2.05 1.94 1.39 1.32
1.12 1.37 1.57 1.35 1.25 1.25 1.23 1.24 1.20 1.23 1.35 1.43 1.54 1.57 1.65 1.69 1.71 1.73 1.89 2.12 2.27 2.25 2.11 1.93 1.82 1.98 2.02 1.96 1.73 1.56 1.44 1.52 1.47 1.48 1.32 1.14 1.37 1.73 2.02 2.07 2.14 1.47 1.37
0.81 1.07 1.12 1.19 1.12 1.16 1.19 1.25 1.37 1.36 1.40 1.41 1.47 1.50 1.52 1.53 1.58 1.64 1.79 1.93 1.99 1.81 1.70 1.64 1.68 1.73 1.69 1.68 1.60 1.51 1.46 1.40 1.50 1.70 1.85 1.24 1.06 1.68 1.88 1.92 1.81 1.36 1.20
0.67 0.81 0.83 0.93 0.91 0.94 1.06 1.23 1.33 1.39 1.42 1.43 1.47 1.48 1.43 1.51 1.57 1.59 1.59 1.60 1.52 1.30 1.23 1.31 1.43 1.46 1.45 1.38 1.39 1.45 1.47 1.50 1.71 2.13 2.25 1.48 1.05 1.35 1.66 1.59 1.42 1.22 1.07
0.60 0.71 0.79 0.80 0.75 0.76 0.88 1.03 1.21 1.33 1.34 1.36 1.38 1.40 1.46 1.50 1.47 1.47 1.39 1.36 1.31 1.23 1.10 1.11 1.28 1.38 1.37 1.28 1.30 1.41 1.49 1.59 1.93 2.11 1.87 1.74 1.60 1.54 1.59 1.52 1.36 1.23 1.13
0.40 0.49 0.61 0.67 0.62 0.67 0.86 1.02 1.11 1.20 1.26 1.30 1.38 1.50 1.52 1.50 1.51 1.42 1.26 1.21 1.21 1.16 1.04 1.06 1.27 1.42 1.40 1.26 1.25 1.44 1.60 1.87 2.00 1.62 1.47 1.50 1.61 1.68 1.62 1.66 1.63 1.46 1.33
0.25 0.34 0.46 0.61 0.59 0.62 0.75 0.96 1.11 1.26 1.38 1.42 1.49 1.43 1.43 1.45 1.36 1.24 1.07 1.02 1.02 1.00 0.94 0.99 1.19 1.42 1.51 1.45 1.37 1.52 1.63 1.91 1.76 1.42 1.34 1.52 1.49 1.44 1.56 1.74 1.94 1.78 1.51
0.17 0.23 0.34 0.53 0.57 0.60 0.67 0.85 1.09 1.30 1.46 1.46 1.34 1.22 1.20 1.18 1.09 1.00 0.88 0.86 0.85 0.76 0.77 0.88 1.06 1.15 1.37 1.55 1.55 1.57 1.56 1.53 1.21 1.18 1.18 1.27 1.06 1.18 1.47 1.70 1.87 1.80 1.54
0.22 0.21 0.29 0.39 0.44 0.48 0.62 0.83 1.00 1.03 1.08 1.07 1.03 1.05 1.10 1.07 0.94 0.85 0.78 0.77 0.73 0.75 0.82 0.96 1.07 1.09 1.34 1.52 1.51 1.47 1.56 1.42 1.09 1.18 1.16 1.34 1.24 1.39 1.71 1.80 1.74 1.77 1.61
0.43 0.37 0.43 0.44 0.48 0.48 0.50 0.66 0.80 0.88 0.89 0.90 0.90 0.90 0.88 0.87 0.85 0.79 0.70 0.73 0.69 0.71 0.84 1.09 1.25 1.22 1.37 1.50 1.57 1.68 1.83 1.54 1.22 1.24 1.34 1.26 1.33 1.61 1.98 2.03 1.92 1.90 1.82
0.83 0.72 0.62 0.58 0.50 0.45 0.42 0.49 0.68 0.77 0.83 0.86 0.85 0.81 0.85 0.88 0.83 0.84 0.73 0.87 0.86 0.88 0.93 1.12 1.36 1.59 1.63 1.57 1.76 1.92 1.87 1.66 1.69 1.57 1.54 1.32 1.42 1.80 2.10 2.12 2.13 2.16 2.05
1.05 0.97 0.88 0.82 0.59 0.49 0.50 0.69 0.85 0.78 0.88 0.97 1.01 1.00 1.10 1.20 1.16 0.86 0.95 1.21 1.28 1.40 1.38 1.44 1.66 1.76 1.71 1.81 2.34 2.48 1.88 1.83 1.76 1.72 1.86 1.68 1.77 2.14 2.43 2.26 2.15 2.23 2.18
1.27 1.01 1.01 1.17 1.01 0.85 0.92 0.87 0.90 0.98 1.15 1.19 1.12 1.16 1.35 1.16 0.99 1.01 1.16 1.37 1.56 1.70 1.89 2.14 2.33 2.09 2.19 2.51 2.76 2.53 1.96 1.71 1.73 1.66 1.93 1.99 2.07 2.46 2.81 2.64 2.41 2.38 2.36
1.45 1.14 1.03 1.13 1.29 1.22 1.12 1.09 1.05 1.02 1.12 1.19 1.35 1.33 1.47 1.44 1.39 1.46 1.72 1.83 2.00 2.17 2.54 2.61 2.96 2.75 2.50 2.42 2.53 2.40 2.17 2.01 1.89 2.03 2.22 1.90 2.05 2.55 3.05 3.06 2.89 2.71 2.53
1.74 1.51 1.32 1.22 1.39 1.43 1.42 1.36 1.23 1.22 1.24 1.44 1.59 1.62 1.70 1.80 1.97 2.13 2.12 2.34 2.28 2.36 2.59 2.96 3.00 3.19 3.26 3.25 3.00 2.66 2.58 2.40 2.19 2.31 2.42 2.30 2.22 2.45 2.97 3.39 3.28 3.04 2.73
2.20 2.03 1.74 1.51 1.44 1.50 1.54 1.59 1.64 1.60 1.77 1.83 1.96 2.00 2.16 2.36 2.55 2.76 2.78 2.83 2.59 2.56 2.85 3.12 3.23 3.74 3.72 3.59 3.15 2.87 2.70 2.61 2.36 2.26 2.45 2.57 2.27 2.24 2.63 3.33 3.61 3.40 3.18
2.47 2.45 2.29 2.12 2.05 2.12 2.27 2.22 2.09 2.22 2.30 2.40 2.52 2.55 2.61 2.70 2.96 3.13 3.06 2.96 2.91 2.86 3.06 3.29 3.48 3.67 3.52 3.39 3.24 3.04 2.90 2.68 2.31 2.28 2.34 2.54 2.43 2.28 2.53 2.93 3.37 3.45 3.50
2.59 2.91 2.95 2.75 2.88 2.99 3.13 3.09 2.82 2.80 2.83 2.87 2.84 2.86 2.87 2.96 3.12 3.46 3.23 3.06 3.36 3.14 3.31 3.79 3.85 3.87 3.87 3.65 3.47 3.17 2.99 2.78 2.29 2.17 2.18 2.49 2.86 2.47 2.56 2.89 3.07 3.16 3.61
2.75 3.21 3.42 3.51 3.68 3.69 3.70 3.66 3.58 3.45 3.34 3.10 3.12 3.10 2.95 2.94 3.03 3.34 3.24 3.29 3.33 3.56 3.60 3.36 3.94 4.05 3.98 3.80 3.20 2.99 2.66 2.48 2.31 2.06 2.18 2.30 2.68 2.55 2.57 2.65 2.85 3.02 3.59
3.16 3.54 4.02 4.19 4.26 4.03 3.90 3.87 3.72 3.47 3.32 3.17 3.17 3.09 2.85 2.87 2.90 3.32 3.18 3.13 3.21 3.55 3.57 3.56 3.95 3.95 3.72 3.71 2.98 2.72 2.53 2.14 2.11 2.16 2.01 2.16 2.34 2.03 2.19 2.50 2.96 2.65 2.88
3.71 3.97 4.24 4.62 4.73 4.49 4.44 4.38 4.26 3.94 3.79 3.46 3.06 2.70 2.62 2.59 2.75 3.19 2.93 3.24 3.15 3.28 3.35 3.37 3.65 3.78 3.46 3.52 3.51 3.04 2.36 1.93 1.90 1.88 1.92 2.04 2.02 2.06 2.45 2.87 3.05 3.01 2.85
3.54 4.03 4.36 4.35 4.22 3.96 4.07 4.36 4.58 4.55 4.05 3.45 3.09 2.95 2.61 2.51 2.57 2.74 2.97 2.88 2.91 3.12 3.14 3.19 3.49 3.48 3.10 3.22 3.47 3.51 2.82 2.48 2.01 1.52 1.84 1.95 1.95 2.21 2.32 2.41 2.77 3.13 3.20
2.98 3.49 3.62 3.47 3.39 3.24 3.30 3.62 3.85 4.07 3.81 3.44 3.14 2.89 2.60 2.50 2.43 2.50 2.67 2.70 2.73 2.64 2.88 3.10 3.05 3.09 3.01 2.98 3.06 3.46 3.19 2.79 2.32 1.78 1.61 1.70 1.95 2.15 2.17 2.32 2.34 2.60 2.80
2.11 2.36 2.55 2.73 2.80 2.79 2.83 3.03 3.22 3.38 3.32 3.15 3.03 2.79 2.53 2.27 2.19 2.24 2.30 2.31 2.38 2.38 2.68 2.48 2.53 2.82 3.04 2.89 2.82 2.82 2.88 3.00 2.87 2.27 1.77 1.66 1.86 2.00 2.00 1.94 2.09 2.35 2.39
1.82 2.03 2.26 2.55 2.68 2.74 2.70 2.78 3.00 3.26 3.23 2.96 2.74 2.69 2.51 2.30 2.05 1.95 2.12 2.18 2.18 2.16 2.28 2.34 2.64 2.65 2.76 2.73 2.68 2.69 2.83 2.88 2.71 2.52 2.20 2.02 1.93 1.71 1.71 1.81 1.97 2.21 2.32
1.65 1.89 2.11 2.32 2.28 2.35 2.43 2.46 2.49 2.59 2.68 2.56 2.43 2.37 2.20 2.02 1.87 1.85 1.94 2.11 2.07 2.05 2.19 2.27 2.36 2.40 2.49 2.56 2.51 2.48 2.70 2.61 2.56 2.67 2.39 2.24 2.13 1.80 1.76 1.80 1.85 2.00 2.08

GEFSSE_prec_meanprecacc_258.txt.gz
Total_Precipitation_Accumulation
1.47 1.56 1.85 1.58 1.46 1.43 1.50 1.57 1.50 1.53 1.64 1.71 1.76 1.77 1.83 1.91 1.96 2.01 2.10 2.17 2.27 2.34 2.24 2.17 2.08 2.21 2.22 2.13 1.89 1.70 1.57 1.60 1.53 1.40 1.24 1.27 1.38 1.59 1.95 2.10 1.97 1.41 1.35
1.19 1.44 1.67 1.45 1.36 1.38 1.35 1.33 1.31 1.35 1.47 1.58 1.72 1.71 1.77 1.77 1.78 1.81 1.98 2.20 2.34 2.33 2.19 2.01 1.90 2.06 2.10 2.03 1.79 1.64 1.52 1.58 1.53 1.53 1.37 1.18 1.42 1.79 2.07 2.13 2.19 1.50 1.41
0.86 1.11 1.19 1.25 1.19 1.25 1.28 1.33 1.48 1.48 1.51 1.58 1.68 1.65 1.63 1.61 1.65 1.71 1.90 2.05 2.11 1.93 1.82 1.76 1.78 1.82 1.80 1.77 1.67 1.58 1.52 1.47 1.57 1.76 1.90 1.26 1.10 1.74 1.94 1.99 1.87 1.42 1.25
0.69 0.85 0.90 1.02 0.99 1.01 1.14 1.31 1.45 1.52 1.55 1.64 1.67 1.62 1.53 1.59 1.62 1.64 1.67 1.72 1.66 1.44 1.36 1.45 1.57 1.62 1.57 1.46 1.45 1.51 1.53 1.56 1.79 2.21 2.30 1.53 1.10 1.41 1.73 1.67 1.48 1.29 1.12
0.61 0.73 0.86 0.91 0.86 0.86 0.97 1.12 1.32 1.48 1.52 1.56 1.54 1.52 1.54 1.55 1.53 1.52 1.46 1.47 1.43 1.36 1.23 1.25 1.44 1.53 1.48 1.35 1.35 1.47 1.54 1.65 2.02 2.19 1.91 1.78 1.65 1.61 1.68 1.59 1.44 1.30 1.18
0.42 0.52 0.67 0.79 0.71 0.76 0.98 1.14 1.25 1.35 1.43 1.43 1.47 1.58 1.59 1.56 1.57 1.47 1.32 1.30 1.31 1.27 1.16 1.17 1.38 1.52 1.48 1.34 1.33 1.51 1.66 1.94 2.10 1.70 1.53 1.54 1.65 1.75 1.70 1.73 1.70 1.52 1.38
0.28 0.39 0.55 0.73 0.67 0.73 0.91 1.13 1.29 1.44 1.53 1.52 1.55 1.48 1.49 1.52 1.44 1.31 1.13 1.11 1.14 1.09 1.02 1.06 1.25 1.47 1.55 1.50 1.44 1.60 1.73 2.02 1.89 1.54 1.45 1.63 1.53 1.50 1.63 1.79 2.00 1.84 1.56
0.19 0.27 0.38 0.60 0.66 0.74 0.87 1.09 1.36 1.51 1.59 1.54 1.41 1.27 1.26 1.25 1.18 1.09 0.96 0.98 0.98 0.85 0.84 0.94 1.10 1.19 1.40 1.58 1.58 1.62 1.65 1.67 1.40 1.37 1.32 1.39 1.11 1.23 1.52 1.75 1.92 1.85 1.60
0.23 0.23 0.33 0.45 0.52 0.62 0.84 1.06 1.21 1.18 1.18 1.16 1.12 1.14 1.19 1.17 1.04 0.96 0.87 0.94 0.86 0.84 0.88 1.01 1.10 1.11 1.35 1.54 1.53 1.50 1.61 1.49 1.22 1.34 1.29 1.45 1.31 1.44 1.75 1.85 1.77 1.80 1.65
0.45 0.39 0.46 0.48 0.53 0.59 0.67 0.82 0.93 0.97 0.97 0.98 0.99 1.00 1.00 1.04 1.00 0.91 0.84 0.96 0.83 0.78 0.88 1.11 1.27 1.24 1.38 1.51 1.58 1.70 1.87 1.59 1.26 1.29 1.39 1.31 1.37 1.65 2.02 2.06 1.95 1.93 1.85
0.85 0.74 0.65 0.62 0.56 0.53 0.53 0.61 0.78 0.85 0.91 0.93 0.93 0.94 1.02 1.07 0.96 0.92 0.82 1.02 0.95 0.92 0.96 1.15 1.38 1.60 1.64 1.59 1.78 1.95 1.91 1.69 1.72 1.61 1.57 1.35 1.45 1.84 2.14 2.15 2.15 2.19 2.08
1.07 1.00 0.91 0.85 0.64 0.56 0.58 0.77 0.91 0.83 0.93 1.02 1.05 1.07 1.18 1.29 1.24 0.90 1.01 1.27 1.34 1.44 1.41 1.48 1.69 1.79 1.72 1.82 2.37 2.51 1.92 1.88 1.80 1.79 1.90 1.71 1.81 2.18 2.46 2.29 2.17 2.25 2.20
1.28 1.03 1.04 1.20 1.05 0.91 0.98 0.94 0.97 1.04 1.22 1.24 1.16 1.21 1.39 1.19 1.04 1.05 1.20 1.41 1.59 1.73 1.91 2.18 2.37 2.11 2.21 2.54 2.79 2.56 2.00 1.77 1.80 1.73 1.99 2.02 2.11 2.50 2.84 2.66 2.43 2.41 2.38
1.47 1.15 1.05 1.15 1.32 1.25 1.14 1.13 1.10 1.09 1.19 1.26 1.42 1.40 1.51 1.48 1.43 1.50 1.75 1.86 2.03 2.19 2.58 2.64 3.00 2.77 2.53 2.46 2.60 2.46 2.23 2.13 1.96 2.08 2.27 1.94 2.09 2.60 3.11 3.10 2.92 2.75 2.58
1.74 1.52 1.34 1.24 1.41 1.45 1.43 1.38 1.25 1.26 1.29 1.49 1.65 1.67 1.74 1.84 2.02 2.16 2.15 2.36 2.31 2.38 2.62 3.01 3.03 3.22 3.28 3.28 3.07 2.72 2.65 2.48 2.25 2.37 2.46 2.33 2.26 2.49 3.03 3.44 3.33 3.10 2.78
2.20 2.04 1.75 1.52 1.45 1.51 1.55 1.60 1.66 1.62 1.80 1.86 1.99 2.04 2.20 2.40 2.59 2.80 2.80 2.85 2.60 2.58 2.87 3.15 3.25 3.77 3.75 3.62 3.18 2.91 2.77 2.68 2.44 2.35 2.52 2.62 2.31 2.27 2.68 3.39 3.68 3.48 3.25
2.48 2.46 2.30 2.13 2.06 2.13 2.28 2.24 2.10 2.23 2.32 2.42 2.54 2.57 2.63 2.73 3.00 3.18 3.11 3.00 2.93 2.89 3.10 3.33 3.51 3.70 3.56 3.42 3.28 3.09 2.97 2.76 2.40 2.38 2.43 2.63 2.49 2.31 2.57 2.99 3.44 3.53 3.59
2.59 2.91 2.96 2.76 2.89 3.00 3.14 3.10 2.84 2.82 2.85 2.88 2.86 2.88 2.89 2.99 3.16 3.50 3.27 3.09 3.40 3.18 3.35 3.84 3.90 3.91 3.91 3.70 3.52 3.23 3.06 2.87 2.40 2.28 2.29 2.56 2.91 2.51 2.60 2.94 3.15 3.25 3.71
2.75 3.22 3.43 3.52 3.69 3.70 3.71 3.67 3.59 3.47 3.35 3.12 3.13 3.11 2.97 2.96 3.06 3.38 3.28 3.32 3.37 3.60 3.65 3.41 4.01 4.10 4.04 3.85 3.28 3.07 2.73 2.58 2.48 2.20 2.32 2.42 2.77 2.61 2.60 2.69 2.93 3.12 3.70
3.17 3.55 4.03 4.20 4.27 4.04 3.91 3.87 3.73 3.48 3.34 3.19 3.19 3.10 2.87 2.89 2.93 3.36 3.21 3.18 3.26 3.60 3.62 3.62 4.02 4.03 3.80 3.78 3.05 2.79 2.62 2.24 2.22 2.28 2.14 2.30 2.46 2.13 2.28 2.59 3.07 2.76 3.02
3.72 3.98 4.25 4.62 4.73 4.50 4.45 4.38 4.27 3.95 3.80 3.47 3.07 2.71 2.64 2.61 2.76 3.21 2.98 3.29 3.22 3.34 3.41 3.43 3.73 3.86 3.53 3.60 3.59 3.11 2.44 2.03 2.00 2.00 2.03 2.15 2.14 2.21 2.66 3.12 3.26 3.17 3.01
3.55 4.04 4.37 4.36 4.23 3.97 4.08 4.37 4.59 4.56 4.06 3.46 3.10 2.96 2.63 2.52 2.59 2.76 3.01 2.93 2.97 3.18 3.20 3.26 3.56 3.56 3.20 3.33 3.59 3.64 2.91 2.55 2.09 1.62 1.91 2.02 2.06 2.36 2.55 2.70 3.05 3.37 3.41
2.98 3.49 3.63 3.48 3.40 3.25 3.31 3.64 3.86 4.08 3.82 3.47 3.16 2.91 2.62 2.51 2.45 2.53 2.71 2.75 2.78 2.70 2.94 3.17 3.12 3.15 3.10 3.07 3.14 3.56 3.26 2.84 2.37 1.85 1.69 1.79 2.08 2.31 2.32 2.50 2.55 2.82 3.03
2.11 2.37 2.56 2.74 2.82 2.81 2.85 3.04 3.24 3.39 3.33 3.17 3.05 2.81 2.55 2.29 2.22 2.27 2.35 2.37 2.43 2.43 2.73 2.53 2.58 2.86 3.10 2.96 2.89 2.89 2.96 3.06 2.92 2.32 1.84 1.74 1.96 2.12 2.13 2.06 2.24 2.53 2.59
1.83 2.04 2.26 2.56 2.69 2.76 2.72 2.80 3.01 3.28 3.25 2.99 2.76 2.70 2.54 2.31 2.07 1.99 2.17 2.25 2.24 2.21 2.32 2.39 2.70 2.69 2.81 2.79 2.74 2.76 2.91 2.94 2.76 2.58 2.26 2.07 1.99 1.79 1.80 1.93 2.10 2.36 2.46
1.66 1.89 2.12 2.35 2.33 2.43 2.48 2.49 2.53 2.66 2.74 2.59 2.46 2.41 2.24 2.05 1.91 1.89 2.01 2.22 2.16 2.12 2.23 2.31 2.42 2.44 2.53 2.60 2.55 2.55 2.78 2.67 2.61 2.72 2.44 2.29 2.19 1.87 1.83 1.90 1.98 2.14 2.20

GEFSSE_prec_meanprecacc_264.txt.gz
Total_Precipitation_Accumulation
1.55 1.68 2.03 1.75 1.64 1.64 1.68 1.73 1.62 1.64 1.78 1.89 1.95 1.97 2.01 2.05 2.08 2.14 2.20 2.27 2.37 2.46 2.39 2.31 2.21 2.33 2.34 2.25 2.00 1.78 1.63 1.64 1.58 1.46 1.29 1.29 1.41 1.63 2.00 2.16 2.02 1.45 1.41
1.26 1.54 1.82 1.60 1.55 1.60 1.57 1.55 1.52 1.54 1.69 1.81 1.93 1.91 1.93 1.88 1.88 1.91 2.07 2.30 2.47 2.46 2.35 2.16 2.06 2.17 2.19 2.12 1.86 1.68 1.56 1.63 1.58 1.61 1.44 1.23 1.48 1.86 2.15 2.21 2.25 1.54 1.45
0.92 1.20 1.29 1.38 1.31 1.40 1.46 1.54 1.72 1.74 1.77 1.79 1.86 1.81 1.77 1.74 1.75 1.81 1.99 2.14 2.22 2.05 1.96 1.94 1.95 1.92 1.89 1.84 1.72 1.62 1.57 1.52 1.63 1.85 1.99 1.33 1.17 1.83 2.04 2.09 1.95 1.47 1.30
0.74 0.90 0.99 1.13 1.09 1.11 1.26 1.45 1.66 1.75 1.77 1.82 1.83 1.76 1.65 1.70 1.73 1.74 1.76 1.80 1.74 1.53 1.49 1.62 1.72 1.72 1.66 1.53 1.51 1.57 1.59 1.62 1.86 2.28 2.36 1.59 1.17 1.50 1.83 1.76 1.57 1.35 1.18
0.65 0.77 0.94 1.02 0.96 0.95 1.07 1.24 1.46 1.65 1.69 1.71 1.68 1.66 1.67 1.67 1.63 1.62 1.57 1.57 1.53 1.46 1.37 1.41 1.56 1.65 1.57 1.42 1.42 1.52 1.58 1.70 2.07 2.24 1.95 1.83 1.70 1.69 1.78 1.70 1.54 1.38 1.24
0.45 0.56 0.75 0.92 0.83 0.87 1.09 1.26 1.37 1.50 1.56 1.56 1.60 1.69 1.69 1.66 1.66 1.56 1.45 1.44 1.45 1.40 1.32 1.31 1.48 1.62 1.57 1.43 1.41 1.59 1.72 1.99 2.14 1.74 1.58 1.59 1.69 1.83 1.80 1.83 1.79 1.60 1.43
0.32 0.44 0.63 0.86 0.82 0.88 1.05 1.25 1.43 1.60 1.66 1.63 1.67 1.57 1.58 1.61 1.53 1.41 1.28 1.30 1.32 1.29 1.20 1.19 1.35 1.56 1.63 1.59 1.54 1.71 1.82 2.07 1.94 1.58 1.49 1.67 1.58 1.56 1.70 1.87 2.07 1.90 1.61
0.24 0.33 0.47 0.73 0.87 0.96 1.04 1.22 1.49 1.62 1.70 1.65 1.52 1.37 1.35 1.33 1.28 1.20 1.11 1.16 1.18 1.07 1.01 1.08 1.22 1.28 1.47 1.65 1.68 1.75 1.79 1.79 1.49 1.44 1.38 1.45 1.18 1.29 1.58 1.82 1.98 1.90 1.64
0.27 0.28 0.40 0.55 0.71 0.85 1.04 1.20 1.32 1.28 1.28 1.24 1.20 1.24 1.28 1.27 1.14 1.06 1.01 1.11 1.06 1.03 1.03 1.12 1.20 1.20 1.42 1.60 1.59 1.57 1.71 1.64 1.34 1.44 1.35 1.49 1.36 1.50 1.81 1.90 1.83 1.86 1.68
0.49 0.45 0.52 0.57 0.65 0.76 0.89 0.99 1.05 1.09 1.09 1.09 1.09 1.11 1.11 1.15 1.12 1.05 1.02 1.12 0.98 0.91 0.98 1.20 1.35 1.31 1.46 1.57 1.63 1.76 1.92 1.65 1.31 1.33 1.43 1.33 1.40 1.71 2.09 2.11 2.00 1.99 1.88
0.88 0.79 0.71 0.70 0.64 0.65 0.70 0.78 0.96 1.03 1.05 1.05 1.05 1.04 1.11 1.15 1.04 1.05 1.08 1.24 1.11 1.02 1.03 1.24 1.47 1.68 1.71 1.64 1.83 2.01 1.96 1.73 1.75 1.63 1.59 1.37 1.48 1.89 2.22 2.20 2.19 2.24 2.12
1.09 1.03 0.96 0.91 0.70 0.63 0.67 0.87 1.02 0.93 1.01 1.10 1.13 1.12 1.23 1.35 1.30 1.04 1.32 1.50 1.49 1.54 1.50 1.58 1.78 1.86 1.78 1.87 2.41 2.54 1.94 1.90 1.82 1.80 1.92 1.73 1.83 2.22 2.51 2.34 2.21 2.29 2.24
1.28 1.04 1.06 1.24 1.11 0.97 1.03 0.99 1.03 1.10 1.27 1.29 1.20 1.24 1.43 1.25 1.10 1.15 1.34 1.52 1.67 1.79 1.96 2.24 2.43 2.15 2.25 2.58 2.82 2.59 2.02 1.78 1.81 1.74 2.01 2.04 2.13 2.54 2.90 2.71 2.48 2.45 2.41
1.47 1.16 1.05 1.17 1.36 1.30 1.19 1.17 1.14 1.13 1.23 1.31 1.46 1.44 1.56 1.54 1.49 1.56 1.81 1.91 2.08 2.23 2.61 2.69 3.04 2.80 2.56 2.50 2.63 2.50 2.26 2.16 1.98 2.09 2.31 1.96 2.11 2.64 3.16 3.15 2.98 2.80 2.62
1.76 1.53 1.35 1.25 1.43 1.48 1.47 1.42 1.29 1.30 1.34 1.54 1.70 1.72 1.79 1.89 2.08 2.22 2.20 2.40 2.35 2.41 2.65 3.03 3.06 3.26 3.33 3.32 3.12 2.77 2.69 2.53 2.30 2.41 2.49 2.37 2.29 2.54 3.09 3.50 3.39 3.15 2.84
2.21 2.05 1.77 1.55 1.48 1.54 1.58 1.63 1.69 1.65 1.84 1.91 2.03 2.08 2.24 2.44 2.65 2.86 2.85 2.88 2.63 2.61 2.90 3.18 3.29 3.82 3.79 3.68 3.23 2.97 2.82 2.74 2.50 2.40 2.58 2.66 2.34 2.31 2.73 3.46 3.75 3.56 3.33
2.49 2.48 2.33 2.15 2.08 2.15 2.31 2.27 2.13 2.25 2.34 2.46 2.58 2.62 2.67 2.78 3.06 3.25 3.17 3.03 2.95 2.91 3.14 3.38 3.56 3.76 3.62 3.48 3.33 3.14 3.03 2.83 2.45 2.44 2.48 2.67 2.52 2.35 2.62 3.06 3.52 3.62 3.68
2.61 2.94 2.98 2.77 2.90 3.02 3.16 3.13 2.87 2.84 2.86 2.90 2.88 2.90 2.92 3.03 3.21 3.56 3.33 3.13 3.43 3.22 3.40 3.90 3.96 3.97 3.98 3.75 3.57 3.27 3.09 2.90 2.44 2.33 2.33 2.60 2.94 2.53 2.64 3.00 3.22 3.34 3.81
2.77 3.24 3.44 3.53 3.70 3.71 3.72 3.69 3.61 3.47 3.36 3.13 3.15 3.13 2.99 2.98 3.09 3.42 3.32 3.36 3.40 3.65 3.70 3.46 4.07 4.15 4.08 3.89 3.32 3.10 2.75 2.59 2.51 2.24 2.36 2.46 2.81 2.64 2.62 2.72 3.00 3.20 3.79
3.18 3.56 4.03 4.20 4.28 4.05 3.92 3.88 3.74 3.49 3.36 3.20 3.20 3.12 2.89 2.90 2.95 3.39 3.24 3.21 3.30 3.65 3.67 3.67 4.07 4.09 3.87 3.84 3.09 2.82 2.64 2.26 2.25 2.32 2.18 2.35 2.51 2.18 2.33 2.64 3.11 2.80 3.07
3.72 3.98 4.25 4.63 4.74 4.50 4.45 4.39 4.28 3.97 3.82 3.49 3.09 2.72 2.65 2.63 2.79 3.24 3.01 3.33 3.26 3.39 3.45 3.48 3.77 3.91 3.59 3.66 3.63 3.14 2.46 2.06 2.04 2.05 2.09 2.23 2.22 2.29 2.75 3.21 3.33 3.23 3.07
3.55 4.04 4.37 4.36 4.23 3.97 4.08 4.37 4.60 4.57 4.08 3.48 3.12 2.98 2.65 2.56 2.64 2.82 3.06 2.97 3.02 3.21 3.23 3.30 3.62 3.61 3.24 3.38 3.64 3.68 2.94 2.59 2.13 1.65 1.97 2.08 2.15 2.48 2.67 2.81 3.16 3.44 3.51
2.98 3.49 3.63 3.48 3.40 3.25 3.32 3.65 3.87 4.09 3.83 3.48 3.19 2.95 2.66 2.56 2.50 2.58 2.76 2.79 2.82 2.72 2.95 3.20 3.17 3.22 3.16 3.12 3.20 3.60 3.29 2.87 2.41 1.88 1.74 1.85 2.15 2.41 2.42 2.61 2.66 2.93 3.15
2.12 2.37 2.56 2.74 2.82 2.82 2.86 3.06 3.25 3.40 3.35 3.20 3.10 2.87 2.60 2.35 2.28 2.33 2.40 2.40 2.45 2.45 2.74 2.55 2.61 2.92 3.16 3.02 2.94 2.93 2.99 3.08 2.95 2.35 1.88 1.79 2.02 2.17 2.19 2.15 2.36 2.67 2.75
1.83 2.04 2.26 2.56 2.71 2.78 2.75 2.83 3.03 3.31 3.31 3.08 2.86 2.80 2.62 2.38 2.13 2.05 2.21 2.27 2.26 2.22 2.33 2.41 2.71 2.72 2.86 2.84 2.80 2.82 2.94 2.97 2.78 2.61 2.28 2.10 2.03 1.84 1.85 1.98 2.17 2.50 2.65
1.66 1.89 2.12 2.35 2.35 2.45 2.52 2.53 2.57 2.73 2.87 2.73 2.54 2.48 2.30 2.11 1.95 1.94 2.03 2.24 2.17 2.13 2.25 2.34 2.44 2.46 2.56 2.65 2.61 2.61 2.83 2.71 2.64 2.75 2.46 2.32 2.22 1.91 1.87 1.94 2.05 2.27 2.39

GEFSSE_prec_meanprecacc_270.txt.gz
Total_Precipitation_Accumulation
1.62 1.81 2.27 2.01 1.85 1.79 1.82 1.86 1.73 1.75 1.91 2.04 2.09 2.10 2.14 2.17 2.19 2.26 2.32 2.39 2.51 2.62 2.55 2.48 2.35 2.46 2.48 2.39 2.12 1.85 1.68 1.69 1.64 1.51 1.34 1.34 1.46 1.68 2.06 2.22 2.07 1.51 1.48
1.32 1.65 2.07 1.87 1.77 1.76 1.71 1.68 1.64 1.66 1.85 1.98 2.09 2.06 2.10 2.04 2.02 2.03 2.20 2.44 2.64 2.64 2.53 2.33 2.18 2.30 2.32 2.25 1.96 1.76 1.62 1.68 1.65 1.67 1.50 1.28 1.53 1.92 2.23 2.28 2.31 1.60 1.54
0.99 1.32 1.50 1.65 1.58 1.63 1.68 1.70 1.87 1.94 2.00 2.00 2.05 1.98 1.95 1.92 1.94 1.99 2.17 2.31 2.40 2.21 2.13 2.09 2.08 2.05 2.02 1.96 1.81 1.68 1.63 1.57 1.69 1.91 2.05 1.39 1.23 1.90 2.14 2.17 2.04 1.54 1.39
0.80 1.00 1.14 1.33 1.31 1.34 1.53 1.72 1.93 2.04 2.05 2.05 2.01 1.93 1.84 1.91 1.92 1.92 1.90 1.93 1.89 1.68 1.64 1.74 1.86 1.86 1.82 1.66 1.60 1.64 1.65 1.67 1.93 2.34 2.42 1.64 1.22 1.56 1.90 1.83 1.65 1.43 1.26
0.70 0.85 1.08 1.17 1.14 1.14 1.30 1.50 1.76 1.93 1.91 1.90 1.85 1.82 1.84 1.83 1.79 1.77 1.72 1.71 1.66 1.60 1.51 1.55 1.74 1.85 1.76 1.55 1.51 1.60 1.64 1.76 2.14 2.29 2.01 1.89 1.78 1.76 1.83 1.76 1.61 1.44 1.29
0.50 0.64 0.90 1.07 0.99 1.03 1.28 1.46 1.56 1.66 1.70 1.70 1.74 1.83 1.83 1.78 1.78 1.68 1.58 1.56 1.59 1.55 1.46 1.49 1.68 1.78 1.71 1.55 1.51 1.68 1.80 2.05 2.18 1.79 1.63 1.65 1.76 1.89 1.85 1.90 1.86 1.64 1.47
0.38 0.55 0.80 1.06 0.97 1.00 1.19 1.38 1.56 1.71 1.76 1.74 1.79 1.70 1.72 1.72 1.63 1.52 1.40 1.42 1.45 1.42 1.33 1.36 1.53 1.67 1.72 1.69 1.65 1.81 1.92 2.14 1.99 1.64 1.55 1.74 1.65 1.61 1.75 1.95 2.14 1.96 1.66
0.30 0.43 0.61 0.92 1.02 1.08 1.17 1.34 1.60 1.71 1.77 1.72 1.61 1.48 1.47 1.44 1.38 1.32 1.25 1.31 1.32 1.20 1.14 1.22 1.37 1.39 1.57 1.76 1.82 1.89 1.91 1.86 1.55 1.50 1.44 1.51 1.23 1.34 1.64 1.88 2.05 1.96 1.69
0.31 0.35 0.53 0.76 0.92 1.01 1.17 1.32 1.42 1.37 1.36 1.31 1.26 1.31 1.38 1.38 1.28 1.22 1.20 1.29 1.23 1.19 1.19 1.27 1.35 1.32 1.53 1.74 1.71 1.69 1.85 1.74 1.42 1.50 1.39 1.54 1.41 1.56 1.86 1.96 1.90 1.92 1.72
0.55 0.54 0.68 0.76 0.84 0.91 1.02 1.13 1.18 1.22 1.20 1.17 1.18 1.20 1.23 1.29 1.27 1.23 1.22 1.34 1.19 1.12 1.16 1.35 1.47 1.42 1.56 1.66 1.70 1.84 2.00 1.72 1.35 1.36 1.44 1.34 1.44 1.76 2.13 2.16 2.06 2.04 1.91
0.92 0.85 0.77 0.77 0.75 0.79 0.84 0.92 1.11 1.17 1.16 1.14 1.14 1.12 1.19 1.27 1.18 1.23 1.29 1.47 1.34 1.25 1.21 1.36 1.55 1.77 1.80 1.71 1.89 2.06 1.99 1.75 1.76 1.64 1.61 1.38 1.51 1.93 2.27 2.25 2.24 2.29 2.15
1.12 1.08 1.01 0.98 0.80 0.76 0.79 1.00 1.14 1.01 1.09 1.16 1.20 1.18 1.30 1.42 1.47 1.35 1.62 1.74 1.70 1.70 1.62 1.68 1.86 1.93 1.84 1.92 2.45 2.58 1.96 1.91 1.83 1.80 1.94 1.74 1.85 2.25 2.54 2.38 2.27 2.37 2.28
1.30 1.06 1.11 1.31 1.20 1.08 1.17 1.12 1.12 1.17 1.33 1.34 1.25 1.30 1.49 1.30 1.23 1.38 1.56 1.72 1.82 1.91 2.05 2.31 2.50 2.21 2.31 2.63 2.86 2.63 2.05 1.79 1.82 1.75 2.02 2.05 2.14 2.57 2.93 2.74 2.52 2.50 2.45
1.48 1.17 1.09 1.23 1.45 1.43 1.34 1.28 1.21 1.18 1.29 1.35 1.50 1.47 1.60 1.59 1.58 1.66 1.95 2.05 2.19 2.32 2.70 2.78 3.14 2.88 2.62 2.55 2.67 2.54 2.30 2.20 2.00 2.11 2.32 1.97 2.12 2.67 3.21 3.20 3.02 2.84 2.66
1.77 1.54 1.37 1.28 1.48 1.56 1.56 1.50 1.36 1.36 1.39 1.58 1.75 1.75 1.82 1.94 2.15 2.29 2.28 2.50 2.43 2.49 2.72 3.12 3.14 3.34 3.40 3.38 3.18 2.82 2.75 2.59 2.34 2.44 2.52 2.39 2.31 2.57 3.13 3.55 3.44 3.19 2.88
2.22 2.06 1.78 1.55 1.50 1.59 1.65 1.71 1.76 1.70 1.89 1.95 2.08 2.13 2.30 2.48 2.70 2.95 2.94 2.98 2.71 2.69 2.98 3.26 3.38 3.92 3.89 3.76 3.30 3.03 2.89 2.80 2.55 2.44 2.62 2.70 2.37 2.34 2.77 3.52 3.81 3.61 3.37
2.51 2.49 2.34 2.16 2.10 2.18 2.34 2.31 2.18 2.30 2.38 2.51 2.65 2.68 2.73 2.81 3.10 3.31 3.24 3.11 3.02 2.98 3.21 3.47 3.65 3.87 3.70 3.56 3.41 3.24 3.11 2.88 2.49 2.48 2.52 2.72 2.57 2.39 2.67 3.11 3.57 3.67 3.73
2.62 2.96 2.99 2.78 2.91 3.03 3.18 3.16 2.92 2.89 2.90 2.96 2.96 2.96 2.96 3.06 3.24 3.62 3.40 3.21 3.50 3.27 3.46 3.98 4.03 4.05 4.05 3.82 3.65 3.35 3.16 2.98 2.50 2.38 2.37 2.65 3.00 2.58 2.67 3.03 3.26 3.38 3.86
2.77 3.25 3.45 3.54 3.71 3.72 3.73 3.71 3.64 3.50 3.38 3.16 3.18 3.16 3.02 3.01 3.12 3.46 3.37 3.43 3.46 3.69 3.76 3.51 4.12 4.23 4.16 3.96 3.38 3.16 2.81 2.66 2.56 2.28 2.40 2.50 2.86 2.68 2.66 2.74 3.02 3.23 3.83
3.18 3.57 4.04 4.22 4.29 4.06 3.93 3.90 3.76 3.52 3.38 3.22 3.21 3.15 2.92 2.94 2.99 3.44 3.28 3.26 3.34 3.71 3.76 3.76 4.15 4.16 3.93 3.91 3.13 2.86 2.69 2.31 2.30 2.36 2.21 2.38 2.55 2.21 2.36 2.67 3.15 2.83 3.10
3.72 3.98 4.27 4.64 4.75 4.52 4.47 4.42 4.30 4.00 3.85 3.52 3.11 2.74 2.68 2.66 2.83 3.31 3.06 3.39 3.32 3.46 3.54 3.54 3.84 3.97 3.65 3.72 3.68 3.19 2.51 2.10 2.07 2.08 2.13 2.26 2.25 2.32 2.78 3.24 3.37 3.28 3.11
3.55 4.05 4.38 4.37 4.24 3.98 4.10 4.40 4.62 4.60 4.11 3.51 3.15 3.01 2.68 2.60 2.70 2.89 3.13 3.05 3.09 3.28 3.31 3.37 3.69 3.68 3.30 3.43 3.69 3.75 3.01 2.64 2.16 1.67 1.99 2.11 2.18 2.51 2.69 2.84 3.18 3.48 3.55
2.98 3.50 3.63 3.49 3.42 3.27 3.34 3.67 3.89 4.12 3.86 3.52 3.23 2.99 2.69 2.59 2.55 2.64 2.81 2.85 2.88 2.78 3.01 3.26 3.24 3.28 3.23 3.20 3.26 3.67 3.36 2.93 2.45 1.91 1.77 1.88 2.19 2.45 2.45 2.63 2.68 2.96 3.19
2.12 2.37 2.56 2.75 2.83 2.84 2.88 3.09 3.28 3.44 3.40 3.25 3.15 2.91 2.63 2.37 2.33 2.42 2.47 2.46 2.51 2.49 2.79 2.59 2.65 2.98 3.23 3.10 3.01 2.98 3.04 3.13 3.00 2.39 1.91 1.83 2.05 2.21 2.22 2.17 2.39 2.70 2.78
1.83 2.04 2.26 2.56 2.71 2.79 2.77 2.86 3.07 3.35 3.36 3.12 2.90 2.84 2.66 2.43 2.21 2.13 2.27 2.31 2.30 2.26 2.37 2.45 2.77 2.77 2.90 2.91 2.89 2.89 3.00 3.01 2.83 2.65 2.31 2.13 2.06 1.87 1.88 2.02 2.21 2.53 2.68
1.66 1.89 2.12 2.36 2.35 2.46 2.54 2.55 2.60 2.77 2.90 2.76 2.57 2.51 2.33 2.16 2.02 1.97 2.05 2.27 2.21 2.16 2.28 2.38 2.49 2.51 2.61 2.71 2.69 2.68 2.91 2.77 2.69 2.79 2.50 2.36 2.26 1.95 1.91 1.99 2.10 2.32 2.45

GEFSSE_prec_meanprecacc_276.txt.gz
Total_Precipitation_Accumulation
1.79 1.97 2.49 2.20 1.97 1.90 1.94 1.98 1.84 1.85 1.99 2.12 2.17 2.20 2.24 2.26 2.28 2.35 2.43 2.48 2.63 2.76 2.72 2.66 2.54 2.64 2.64 2.54 2.27 2.00 1.81 1.80 1.73 1.60 1.41 1.39 1.51 1.73 2.10 2.25 2.12 1.59 1.54
1.48 1.82 2.26 2.07 1.92 1.89 1.85 1.86 1.77 1.77 1.94 2.07 2.20 2.18 2.23 2.16 2.12 2.13 2.28 2.54 2.77 2.79 2.73 2.50 2.36 2.49 2.50 2.41 2.12 1.91 1.75 1.77 1.74 1.75 1.56 1.32 1.57 1.97 2.29 2.34 2.39 1.68 1.59
1.15 1.50 1.66 1.82 1.74 1.76 1.79 1.85 2.03 2.09 2.14 2.13 2.18 2.12 2.11 2.08 2.08 2.12 2.30 2.48 2.61 2.44 2.38 2.31 2.31 2.24 2.17 2.09 1.93 1.80 1.72 1.66 1.78 1.99 2.14 1.46 1.28 1.96 2.20 2.24 2.10 1.58 1.43
0.91 1.18 1.35 1.53 1.50 1.48 1.64 1.83 2.06 2.19 2.24 2.23 2.19 2.10 1.99 2.07 2.09 2.07 2.07 2.13 2.13 1.93 1.88 1.97 2.08 2.04 1.97 1.79 1.71 1.73 1.72 1.77 2.02 2.42 2.53 1.74 1.29 1.64 1.96 1.89 1.70 1.46 1.28
0.83 1.11 1.40 1.44 1.32 1.25 1.39 1.62 1.91 2.09 2.09 2.08 2.03 1.98 1.99 1.95 1.92 1.92 1.88 1.87 1.83 1.79 1.71 1.77 1.94 2.03 1.90 1.67 1.62 1.70 1.73 1.87 2.24 2.38 2.12 2.00 1.89 1.85 1.89 1.80 1.65 1.47 1.31
0.61 0.86 1.17 1.33 1.20 1.19 1.42 1.59 1.72 1.82 1.86 1.88 1.94 2.01 1.98 1.89 1.87 1.79 1.69 1.67 1.70 1.69 1.59 1.63 1.86 1.98 1.88 1.68 1.63 1.79 1.94 2.16 2.28 1.90 1.76 1.78 1.87 1.96 1.90 1.94 1.89 1.67 1.51
0.49 0.71 0.98 1.26 1.17 1.18 1.34 1.52 1.68 1.84 1.88 1.87 1.94 1.86 1.85 1.83 1.73 1.62 1.48 1.49 1.53 1.52 1.44 1.50 1.66 1.81 1.89 1.84 1.78 1.94 2.07 2.29 2.12 1.75 1.67 1.89 1.76 1.66 1.78 1.98 2.17 1.99 1.69
0.39 0.58 0.79 1.07 1.17 1.22 1.29 1.45 1.71 1.82 1.87 1.82 1.69 1.59 1.59 1.56 1.50 1.42 1.36 1.41 1.43 1.29 1.23 1.31 1.49 1.50 1.71 1.92 1.97 2.04 2.03 1.97 1.64 1.59 1.54 1.61 1.31 1.38 1.68 1.92 2.08 1.99 1.72
0.39 0.47 0.72 0.92 1.05 1.11 1.25 1.39 1.52 1.47 1.45 1.40 1.35 1.41 1.49 1.50 1.39 1.33 1.32 1.44 1.36 1.31 1.29 1.40 1.52 1.45 1.66 1.91 1.87 1.80 1.94 1.82 1.49 1.57 1.45 1.59 1.47 1.60 1.90 1.99 1.92 1.95 1.74
0.62 0.63 0.81 0.87 0.94 1.01 1.11 1.22 1.28 1.32 1.29 1.27 1.28 1.31 1.34 1.38 1.37 1.34 1.34 1.49 1.34 1.27 1.29 1.54 1.67 1.58 1.74 1.85 1.84 1.92 2.07 1.77 1.40 1.41 1.50 1.38 1.48 1.79 2.16 2.19 2.09 2.07 1.95
0.97 0.93 0.87 0.87 0.84 0.88 0.92 1.02 1.22 1.26 1.25 1.24 1.25 1.21 1.28 1.38 1.29 1.34 1.44 1.63 1.51 1.44 1.41 1.61 1.78 1.98 1.99 1.85 1.98 2.11 2.03 1.77 1.80 1.68 1.64 1.41 1.54 1.96 2.30 2.28 2.27 2.33 2.19
1.16 1.13 1.08 1.06 0.89 0.84 0.87 1.08 1.23 1.08 1.17 1.24 1.31 1.27 1.37 1.52 1.60 1.49 1.80 1.91 1.90 1.94 1.87 1.91 2.04 2.06 1.93 2.01 2.51 2.61 1.98 1.92 1.85 1.84 1.97 1.76 1.88 2.28 2.57 2.40 2.29 2.40 2.32
1.35 1.11 1.17 1.37 1.25 1.16 1.29 1.21 1.21 1.26 1.44 1.44 1.34 1.37 1.57 1.39 1.34 1.52 1.73 1.87 1.98 2.08 2.21 2.45 2.61 2.29 2.37 2.70 2.92 2.68 2.08 1.82 1.85 1.78 2.05 2.09 2.18 2.60 2.96 2.77 2.55 2.54 2.49
1.54 1.24 1.18 1.33 1.52 1.52 1.47 1.39 1.31 1.27 1.37 1.43 1.57 1.53 1.66 1.67 1.68 1.79 2.12 2.22 2.38 2.46 2.82 2.90 3.24 2.98 2.69 2.60 2.72 2.59 2.34 2.23 2.03 2.14 2.37 2.00 2.15 2.70 3.25 3.22 3.04 2.87 2.69
1.80 1.58 1.45 1.40 1.59 1.66 1.68 1.62 1.47 1.46 1.46 1.65 1.80 1.81 1.88 2.00 2.24 2.40 2.44 2.70 2.60 2.60 2.83 3.23 3.23 3.44 3.49 3.45 3.24 2.86 2.79 2.62 2.38 2.47 2.55 2.41 2.32 2.59 3.16 3.58 3.48 3.24 2.91
2.23 2.07 1.81 1.61 1.58 1.67 1.73 1.83 1.86 1.77 1.94 2.01 2.13 2.20 2.35 2.54 2.77 3.03 3.05 3.12 2.85 2.79 3.08 3.35 3.48 4.03 4.00 3.86 3.37 3.09 2.94 2.85 2.60 2.47 2.66 2.75 2.40 2.36 2.80 3.55 3.85 3.66 3.41
2.52 2.50 2.34 2.18 2.13 2.23 2.42 2.41 2.26 2.35 2.41 2.56 2.71 2.75 2.79 2.86 3.19 3.42 3.36 3.24 3.16 3.09 3.37 3.61 3.76 3.98 3.79 3.66 3.54 3.34 3.19 2.95 2.54 2.52 2.57 2.77 2.61 2.42 2.69 3.13 3.60 3.72 3.78
2.63 2.96 3.00 2.78 2.92 3.05 3.24 3.25 2.99 2.95 2.96 3.04 3.03 3.05 3.04 3.15 3.38 3.80 3.56 3.35 3.63 3.40 3.61 4.16 4.17 4.20 4.18 3.93 3.76 3.43 3.23 3.05 2.55 2.42 2.41 2.69 3.06 2.64 2.71 3.06 3.29 3.41 3.90
2.78 3.26 3.46 3.55 3.72 3.73 3.77 3.79 3.70 3.57 3.47 3.25 3.26 3.24 3.09 3.10 3.24 3.62 3.50 3.54 3.57 3.84 3.91 3.65 4.28 4.42 4.30 4.07 3.46 3.24 2.88 2.73 2.63 2.34 2.46 2.56 2.92 2.74 2.71 2.78 3.06 3.26 3.86
3.18 3.57 4.05 4.23 4.31 4.08 3.97 3.98 3.84 3.60 3.46 3.30 3.28 3.24 3.01 3.04 3.09 3.55 3.38 3.35 3.42 3.82 3.87 3.86 4.30 4.31 4.04 4.00 3.18 2.94 2.77 2.37 2.36 2.42 2.26 2.44 2.62 2.27 2.43 2.74 3.21 2.87 3.14
3.72 3.99 4.27 4.66 4.77 4.55 4.52 4.48 4.38 4.09 3.93 3.59 3.18 2.81 2.75 2.73 2.91 3.40 3.14 3.47 3.40 3.56 3.63 3.63 3.95 4.09 3.75 3.81 3.77 3.28 2.59 2.17 2.12 2.12 2.17 2.33 2.32 2.38 2.86 3.34 3.47 3.36 3.18
3.55 4.05 4.39 4.38 4.26 4.00 4.13 4.44 4.68 4.67 4.17 3.58 3.21 3.07 2.72 2.64 2.75 2.95 3.19 3.11 3.16 3.36 3.37 3.43 3.78 3.78 3.38 3.52 3.78 3.84 3.10 2.74 2.22 1.70 2.03 2.16 2.23 2.56 2.75 2.89 3.25 3.57 3.64
2.98 3.50 3.64 3.50 3.44 3.30 3.37 3.70 3.93 4.17 3.91 3.57 3.28 3.03 2.71 2.60 2.57 2.68 2.86 2.90 2.93 2.82 3.06 3.31 3.31 3.37 3.31 3.27 3.33 3.77 3.47 3.04 2.54 1.96 1.80 1.91 2.23 2.50 2.50 2.67 2.71 3.00 3.25
2.12 2.37 2.56 2.76 2.85 2.86 2.91 3.12 3.31 3.49 3.45 3.30 3.19 2.94 2.66 2.38 2.34 2.44 2.51 2.51 2.56 2.55 2.86 2.63 2.71 3.05 3.31 3.17 3.08 3.04 3.11 3.22 3.10 2.47 1.97 1.86 2.07 2.24 2.25 2.19 2.41 2.73 2.83
1.83 2.04 2.27 2.57 2.73 2.80 2.78 2.88 3.10 3.40 3.40 3.16 2.92 2.87 2.69 2.45 2.22 2.14 2.30 2.37 2.36 2.31 2.42 2.49 2.81 2.82 2.97 2.98 2.96 2.96 3.06 3.08 2.91 2.73 2.38 2.20 2.13 1.91 1.90 2.03 2.23 2.56 2.74
1.66 1.90 2.12 2.36 2.37 2.47 2.55 2.56 2.62 2.81 2.94 2.79 2.60 2.54 2.35 2.18 2.04 1.99 2.09 2.31 2.24 2.20 2.32 2.41 2.52 2.54 2.65 2.76 2.75 2.74 2.97 2.83 2.76 2.86 2.57 2.42 2.31 1.99 1.93 2.01 2.13 2.35 2.48

GEFSSE_prec_meanprecacc_282.txt.gz
Total_Precipitation_Accumulation
1.87 2.09 2.59 2.33 2.11 2.01 2.05 2.06 1.90 1.91 2.05 2.19 2.23 2.25 2.29 2.31 2.34 2.42 2.49 2.55 2.73 2.90 2.87 2.82 2.69 2.76 2.75 2.67 2.38 2.09 1.90 1.89 1.79 1.65 1.46 1.43 1.55 1.76 2.14 2.30 2.16 1.61 1.56
1.60 1.96 2.41 2.20 2.02 1.99 1.96 1.94 1.83 1.83 2.01 2.14 2.26 2.23 2.29 2.21 2.18 2.19 2.33 2.63 2.90 2.95 2.88 2.65 2.53 2.63 2.61 2.53 2.23 2.02 1.86 1.88 1.81 1.80 1.61 1.36 1.61 2.01 2.33 2.40 2.43 1.71 1.61
1.30 1.66 1.81 1.94 1.84 1.85 1.87 1.93 2.13 2.17 2.21 2.20 2.26 2.19 2.18 2.15 2.15 2.19 2.38 2.58 2.74 2.58 2.52 2.46 2.48 2.38 2.29 2.20 2.03 1.89 1.82 1.76 1.85 2.05 2.19 1.49 1.30 1.99 2.25 2.29 2.15 1.62 1.45
1.16 1.37 1.48 1.66 1.60 1.56 1.72 1.93 2.17 2.30 2.33 2.33 2.27 2.16 2.07 2.15 2.17 2.18 2.18 2.25 2.25 2.07 2.02 2.14 2.26 2.19 2.09 1.87 1.79 1.83 1.82 1.86 2.09 2.49 2.57 1.77 1.31 1.66 2.00 1.93 1.73 1.47 1.30
1.13 1.35 1.53 1.56 1.42 1.35 1.49 1.73 2.01 2.19 2.19 2.18 2.10 2.05 2.07 2.03 2.02 2.05 2.03 2.04 1.97 1.91 1.85 1.93 2.06 2.13 2.00 1.74 1.69 1.79 1.83 1.96 2.33 2.44 2.15 2.05 1.93 1.89 1.92 1.83 1.67 1.48 1.33
0.86 1.09 1.34 1.50 1.38 1.37 1.58 1.73 1.84 1.93 1.95 1.95 2.00 2.07 2.02 1.94 1.93 1.86 1.77 1.76 1.78 1.76 1.68 1.74 1.94 2.05 1.96 1.76 1.70 1.89 2.06 2.27 2.35 1.94 1.80 1.83 1.90 2.00 1.94 1.98 1.91 1.69 1.52
0.67 0.88 1.13 1.42 1.36 1.39 1.52 1.64 1.78 1.91 1.95 1.93 1.99 1.90 1.90 1.87 1.78 1.65 1.51 1.54 1.59 1.58 1.50 1.56 1.71 1.87 1.97 1.92 1.87 2.09 2.22 2.40 2.17 1.78 1.71 1.92 1.79 1.70 1.83 2.03 2.20 2.02 1.71
0.53 0.72 0.93 1.23 1.30 1.31 1.36 1.52 1.79 1.88 1.92 1.87 1.74 1.63 1.64 1.61 1.54 1.46 1.39 1.45 1.47 1.34 1.28 1.37 1.55 1.58 1.80 2.03 2.12 2.21 2.14 2.03 1.67 1.63 1.57 1.64 1.34 1.43 1.72 1.96 2.12 2.02 1.75
0.48 0.59 0.82 1.03 1.18 1.22 1.34 1.48 1.59 1.54 1.53 1.47 1.41 1.46 1.56 1.60 1.46 1.38 1.38 1.49 1.43 1.37 1.36 1.46 1.61 1.56 1.77 2.06 2.02 1.91 2.00 1.87 1.54 1.63 1.50 1.64 1.52 1.66 1.94 2.03 1.97 1.98 1.78
0.68 0.70 0.88 0.96 1.04 1.13 1.24 1.33 1.38 1.42 1.38 1.35 1.35 1.39 1.41 1.47 1.45 1.41 1.43 1.58 1.44 1.37 1.37 1.62 1.81 1.72 1.89 1.99 1.93 1.99 2.13 1.83 1.45 1.48 1.56 1.44 1.55 1.87 2.22 2.23 2.13 2.11 1.98
1.02 0.98 0.93 0.93 0.92 0.97 1.05 1.16 1.35 1.39 1.37 1.32 1.31 1.27 1.33 1.42 1.34 1.41 1.53 1.78 1.67 1.57 1.51 1.74 1.98 2.19 2.17 1.96 2.06 2.17 2.09 1.82 1.84 1.76 1.72 1.48 1.63 2.06 2.38 2.35 2.32 2.37 2.23
1.20 1.18 1.13 1.10 0.94 0.91 0.95 1.20 1.33 1.18 1.24 1.29 1.35 1.31 1.40 1.55 1.64 1.56 1.90 2.07 2.13 2.14 2.06 2.17 2.30 2.25 2.03 2.06 2.56 2.66 2.03 1.97 1.90 1.94 2.04 1.84 2.01 2.45 2.69 2.48 2.34 2.44 2.35
1.37 1.14 1.19 1.42 1.32 1.23 1.36 1.28 1.28 1.33 1.48 1.48 1.38 1.41 1.60 1.44 1.39 1.60 1.85 2.08 2.22 2.29 2.45 2.70 2.78 2.38 2.42 2.73 2.96 2.72 2.13 1.88 1.90 1.84 2.11 2.15 2.29 2.77 3.10 2.84 2.59 2.57 2.53
1.56 1.26 1.20 1.35 1.58 1.61 1.54 1.44 1.35 1.30 1.40 1.47 1.61 1.57 1.72 1.74 1.75 1.90 2.28 2.39 2.55 2.59 2.97 3.03 3.35 3.07 2.76 2.66 2.78 2.63 2.39 2.28 2.08 2.20 2.41 2.06 2.21 2.77 3.31 3.26 3.07 2.91 2.75
1.81 1.60 1.47 1.42 1.65 1.75 1.78 1.68 1.50 1.48 1.48 1.67 1.83 1.86 1.94 2.07 2.33 2.55 2.62 2.89 2.78 2.74 2.97 3.38 3.36 3.55 3.58 3.52 3.29 2.90 2.84 2.68 2.41 2.51 2.59 2.47 2.37 2.64 3.21 3.62 3.52 3.27 2.96
2.24 2.08 1.83 1.64 1.65 1.78 1.86 1.91 1.91 1.79 1.96 2.04 2.17 2.24 2.41 2.63 2.90 3.18 3.22 3.31 3.04 2.96 3.30 3.59 3.69 4.18 4.12 3.94 3.42 3.13 2.99 2.90 2.64 2.51 2.70 2.79 2.45 2.41 2.85 3.61 3.91 3.71 3.47
2.52 2.50 2.35 2.18 2.16 2.28 2.54 2.53 2.32 2.39 2.45 2.59 2.76 2.80 2.85 2.99 3.35 3.61 3.54 3.39 3.31 3.25 3.54 3.87 4.04 4.18 3.94 3.76 3.58 3.38 3.22 2.98 2.57 2.56 2.60 2.81 2.65 2.46 2.74 3.19 3.65 3.78 3.86
2.63 2.96 3.00 2.78 2.93 3.10 3.33 3.35 3.06 3.01 3.01 3.08 3.06 3.08 3.07 3.19 3.44 3.89 3.65 3.42 3.69 3.48 3.70 4.29 4.35 4.31 4.27 4.02 3.81 3.46 3.25 3.08 2.58 2.46 2.44 2.72 3.08 2.66 2.74 3.11 3.34 3.47 3.98
2.78 3.26 3.46 3.55 3.73 3.77 3.84 3.85 3.77 3.63 3.52 3.28 3.29 3.26 3.11 3.13 3.28 3.66 3.53 3.56 3.59 3.87 3.95 3.69 4.34 4.47 4.34 4.11 3.49 3.27 2.91 2.77 2.67 2.37 2.49 2.58 2.95 2.77 2.75 2.82 3.11 3.30 3.91
3.19 3.58 4.05 4.23 4.32 4.11 4.01 4.02 3.89 3.66 3.52 3.34 3.31 3.27 3.05 3.08 3.15 3.61 3.42 3.39 3.45 3.85 3.91 3.90 4.35 4.35 4.08 4.04 3.22 2.98 2.81 2.41 2.40 2.45 2.30 2.48 2.66 2.30 2.47 2.79 3.26 2.90 3.17
3.72 3.99 4.27 4.66 4.79 4.56 4.53 4.50 4.41 4.13 3.98 3.63 3.21 2.86 2.79 2.80 3.02 3.50 3.19 3.51 3.43 3.59 3.66 3.66 3.99 4.12 3.78 3.84 3.81 3.33 2.63 2.22 2.17 2.18 2.22 2.37 2.36 2.41 2.91 3.41 3.54 3.43 3.22
3.55 4.05 4.39 4.38 4.27 4.01 4.14 4.46 4.71 4.70 4.20 3.61 3.26 3.13 2.77 2.71 2.83 3.00 3.23 3.16 3.19 3.38 3.39 3.46 3.81 3.81 3.42 3.55 3.81 3.88 3.13 2.78 2.26 1.74 2.09 2.21 2.28 2.60 2.79 2.95 3.31 3.63 3.70
2.99 3.50 3.64 3.51 3.44 3.31 3.39 3.71 3.95 4.20 3.95 3.64 3.34 3.08 2.74 2.66 2.62 2.71 2.91 2.94 2.96 2.84 3.09 3.34 3.33 3.39 3.34 3.31 3.36 3.80 3.51 3.08 2.58 2.01 1.90 2.01 2.30 2.55 2.55 2.75 2.79 3.09 3.33
2.12 2.38 2.57 2.77 2.87 2.88 2.92 3.13 3.33 3.51 3.47 3.35 3.24 2.97 2.68 2.42 2.38 2.46 2.54 2.55 2.59 2.57 2.87 2.65 2.74 3.07 3.34 3.20 3.12 3.06 3.14 3.27 3.14 2.50 2.02 1.92 2.14 2.30 2.30 2.26 2.50 2.85 2.94
1.84 2.05 2.29 2.59 2.74 2.82 2.80 2.89 3.11 3.41 3.42 3.18 2.94 2.88 2.70 2.47 2.25 2.17 2.32 2.39 2.38 2.33 2.43 2.50 2.82 2.84 2.99 3.00 2.98 2.98 3.09 3.13 2.96 2.77 2.41 2.25 2.18 1.95 1.94 2.08 2.29 2.64 2.84
1.66 1.90 2.13 2.37 2.38 2.49 2.56 2.57 2.63 2.81 2.95 2.79 2.61 2.55 2.36 2.20 2.06 2.01 2.10 2.33 2.25 2.20 2.32 2.42 2.53 2.55 2.67 2.78 2.77 2.77 3.00 2.87 2.80 2.90 2.61 2.45 2.35 2.02 1.97 2.05 2.18 2.41 2.56

GEFSSE_prec_meanprecacc_288.txt.gz
Total_Precipitation_Accumulation
1.94 2.21 2.78 2.51 2.26 2.16 2.17 2.16 2.00 1.99 2.13 2.27 2.29 2.31 2.35 2.37 2.41 2.51 2.62 2.71 2.87 3.03 3.04 3.03 2.87 2.93 2.89 2.82 2.52 2.18 1.97 1.95 1.85 1.69 1.51 1.49 1.59 1.82 2.22 2.38 2.21 1.64 1.60
1.67 2.08 2.54 2.33 2.16 2.12 2.09 2.05 1.92 1.90 2.08 2.22 2.31 2.28 2.35 2.28 2.26 2.28 2.47 2.79 3.06 3.12 3.08 2.85 2.69 2.77 2.74 2.68 2.34 2.10 1.93 1.94 1.86 1.85 1.67 1.42 1.65 2.05 2.40 2.48 2.49 1.75 1.65
1.38 1.78 1.93 2.06 1.99 2.03 2.00 2.05 2.26 2.27 2.30 2.28 2.32 2.24 2.25 2.23 2.25 2.32 2.55 2.77 2.94 2.78 2.71 2.63 2.62 2.53 2.41 2.31 2.13 1.98 1.90 1.83 1.92 2.11 2.23 1.51 1.34 2.04 2.32 2.38 2.21 1.66 1.48
1.27 1.49 1.61 1.85 1.80 1.72 1.85 2.05 2.31 2.44 2.45 2.43 2.35 2.23 2.17 2.26 2.31 2.36 2.36 2.44 2.45 2.26 2.21 2.36 2.47 2.36 2.22 1.97 1.87 1.92 1.90 1.94 2.16 2.53 2.58 1.78 1.33 1.70 2.06 2.02 1.80 1.51 1.34
1.28 1.48 1.69 1.78 1.61 1.50 1.62 1.87 2.14 2.32 2.32 2.29 2.19 2.13 2.17 2.14 2.16 2.21 2.19 2.20 2.12 2.11 2.08 2.12 2.23 2.28 2.12 1.86 1.82 1.93 1.94 2.04 2.39 2.47 2.17 2.07 1.95 1.92 1.96 1.90 1.74 1.52 1.37
1.00 1.24 1.50 1.68 1.55 1.51 1.70 1.84 1.95 2.04 2.07 2.05 2.08 2.14 2.10 2.04 2.05 1.98 1.88 1.87 1.89 1.92 1.82 1.86 2.08 2.21 2.09 1.90 1.85 2.03 2.20 2.39 2.41 1.95 1.82 1.85 1.92 2.03 1.98 2.05 1.98 1.73 1.56
0.82 1.02 1.27 1.57 1.49 1.48 1.60 1.73 1.87 2.01 2.03 2.00 2.05 1.96 1.95 1.95 1.88 1.76 1.60 1.62 1.67 1.68 1.60 1.65 1.81 1.97 2.06 2.02 1.98 2.21 2.35 2.53 2.21 1.80 1.73 1.94 1.81 1.73 1.89 2.12 2.28 2.07 1.76
0.66 0.85 1.04 1.36 1.41 1.40 1.43 1.60 1.88 1.98 1.98 1.92 1.78 1.68 1.69 1.68 1.62 1.55 1.48 1.54 1.56 1.43 1.38 1.47 1.66 1.68 1.91 2.15 2.25 2.38 2.33 2.16 1.71 1.65 1.60 1.67 1.37 1.48 1.79 2.04 2.20 2.08 1.80
0.55 0.65 0.89 1.12 1.27 1.31 1.44 1.58 1.70 1.64 1.58 1.52 1.45 1.51 1.61 1.66 1.53 1.48 1.47 1.57 1.51 1.49 1.50 1.59 1.75 1.70 1.92 2.25 2.28 2.18 2.21 1.98 1.57 1.65 1.52 1.67 1.56 1.72 2.02 2.11 2.05 2.04 1.83
0.75 0.76 0.92 1.03 1.12 1.21 1.32 1.45 1.49 1.50 1.44 1.41 1.41 1.44 1.48 1.56 1.54 1.49 1.51 1.66 1.53 1.49 1.54 1.78 1.93 1.83 2.03 2.18 2.15 2.16 2.26 1.90 1.48 1.51 1.58 1.48 1.61 1.95 2.31 2.32 2.21 2.18 2.04
1.09 1.04 0.99 1.00 1.01 1.06 1.13 1.25 1.44 1.46 1.43 1.38 1.36 1.33 1.39 1.49 1.39 1.47 1.62 1.88 1.78 1.70 1.67 1.88 2.09 2.30 2.30 2.10 2.18 2.26 2.15 1.86 1.86 1.77 1.74 1.53 1.71 2.16 2.47 2.44 2.41 2.45 2.30
1.28 1.26 1.21 1.17 1.02 1.00 1.04 1.28 1.39 1.22 1.28 1.33 1.38 1.33 1.41 1.57 1.67 1.62 1.97 2.21 2.30 2.31 2.23 2.35 2.47 2.42 2.18 2.18 2.66 2.73 2.07 2.01 1.93 1.96 2.09 1.90 2.07 2.55 2.79 2.57 2.44 2.51 2.41
1.44 1.21 1.27 1.49 1.39 1.30 1.42 1.33 1.32 1.36 1.51 1.50 1.40 1.41 1.60 1.45 1.42 1.64 1.91 2.20 2.40 2.47 2.60 2.88 2.96 2.56 2.56 2.83 3.03 2.77 2.18 1.94 1.94 1.87 2.15 2.21 2.35 2.84 3.19 2.93 2.67 2.65 2.60
1.59 1.31 1.25 1.40 1.63 1.64 1.58 1.47 1.38 1.32 1.42 1.48 1.62 1.58 1.73 1.75 1.77 1.95 2.34 2.53 2.72 2.76 3.17 3.21 3.51 3.22 2.89 2.74 2.84 2.69 2.44 2.31 2.11 2.23 2.44 2.11 2.27 2.84 3.40 3.38 3.16 2.99 2.82
1.82 1.61 1.50 1.45 1.69 1.77 1.79 1.69 1.51 1.49 1.50 1.70 1.85 1.87 1.95 2.08 2.35 2.59 2.69 3.01 2.93 2.91 3.18 3.57 3.52 3.67 3.67 3.61 3.36 2.98 2.90 2.72 2.45 2.53 2.61 2.50 2.42 2.70 3.29 3.72 3.60 3.36 3.06
2.25 2.10 1.85 1.69 1.69 1.81 1.88 1.93 1.93 1.80 1.98 2.06 2.19 2.27 2.44 2.65 2.92 3.22 3.27 3.40 3.20 3.14 3.49 3.77 3.84 4.31 4.22 4.03 3.50 3.20 3.04 2.94 2.67 2.54 2.72 2.83 2.50 2.46 2.91 3.69 3.99 3.80 3.59
2.53 2.53 2.42 2.26 2.22 2.32 2.58 2.56 2.34 2.40 2.46 2.60 2.77 2.82 2.87 3.01 3.39 3.66 3.60 3.48 3.46 3.47 3.75 3.99 4.13 4.27 4.01 3.82 3.64 3.42 3.25 3.01 2.60 2.59 2.63 2.83 2.67 2.50 2.81 3.26 3.74 3.87 3.98
2.63 2.98 3.05 2.86 2.99 3.14 3.38 3.39 3.09 3.03 3.02 3.08 3.07 3.09 3.08 3.23 3.48 3.93 3.69 3.49 3.81 3.65 3.81 4.35 4.40 4.36 4.31 4.07 3.86 3.51 3.29 3.11 2.61 2.48 2.46 2.74 3.10 2.68 2.79 3.19 3.43 3.55 4.10
2.78 3.27 3.50 3.64 3.79 3.83 3.91 3.91 3.80 3.65 3.53 3.30 3.31 3.28 3.13 3.17 3.32 3.69 3.55 3.59 3.64 3.92 4.00 3.72 4.37 4.49 4.37 4.13 3.52 3.32 2.95 2.81 2.69 2.39 2.51 2.60 2.97 2.80 2.78 2.88 3.20 3.39 4.01
3.19 3.58 4.09 4.31 4.41 4.22 4.13 4.11 3.93 3.69 3.54 3.36 3.32 3.28 3.08 3.12 3.18 3.64 3.44 3.42 3.48 3.87 3.95 3.94 4.37 4.37 4.10 4.08 3.26 3.02 2.85 2.44 2.42 2.47 2.32 2.50 2.69 2.34 2.52 2.84 3.31 2.96 3.25
3.72 3.99 4.27 4.67 4.84 4.68 4.68 4.60 4.47 4.17 4.01 3.66 3.23 2.89 2.84 2.84 3.06 3.52 3.21 3.53 3.44 3.60 3.67 3.68 4.02 4.15 3.80 3.87 3.84 3.36 2.66 2.23 2.19 2.20 2.24 2.41 2.38 2.44 2.96 3.48 3.62 3.50 3.28
3.56 4.06 4.39 4.38 4.28 4.06 4.21 4.54 4.79 4.77 4.27 3.67 3.31 3.16 2.80 2.76 2.87 3.03 3.27 3.17 3.20 3.39 3.40 3.48 3.83 3.84 3.45 3.58 3.83 3.90 3.16 2.80 2.29 1.77 2.12 2.25 2.31 2.64 2.83 3.00 3.36 3.70 3.77
2.99 3.50 3.64 3.51 3.45 3.32 3.41 3.75 4.03 4.30 4.06 3.73 3.42 3.13 2.78 2.70 2.67 2.76 2.95 2.97 2.97 2.86 3.10 3.35 3.36 3.42 3.38 3.35 3.40 3.83 3.53 3.10 2.61 2.04 1.93 2.03 2.33 2.58 2.58 2.77 2.82 3.14 3.38
2.12 2.38 2.57 2.77 2.87 2.88 2.93 3.16 3.36 3.57 3.57 3.46 3.37 3.07 2.75 2.48 2.44 2.53 2.59 2.59 2.62 2.59 2.89 2.67 2.76 3.11 3.37 3.23 3.15 3.10 3.16 3.29 3.16 2.52 2.03 1.94 2.17 2.33 2.33 2.29 2.52 2.87 2.97
1.84 2.05 2.29 2.59 2.74 2.82 2.81 2.90 3.11 3.42 3.44 3.22 3.04 3.03 2.82 2.58 2.33 2.25 2.39 2.45 2.41 2.35 2.46 2.53 2.85 2.87 3.02 3.03 3.02 3.01 3.11 3.15 2.98 2.79 2.43 2.26 2.20 1.97 1.96 2.11 2.32 2.67 2.85
1.66 1.90 2.13 2.37 2.38 2.50 2.56 2.58 2.63 2.82 2.96 2.80 2.62 2.61 2.46 2.31 2.17 2.09 2.16 2.37 2.28 2.23 2.35 2.43 2.55 2.58 2.69 2.80 2.79 2.79 3.02 2.90 2.83 2.93 2.63 2.46 2.36 2.04 1.98 2.08 2.20 2.43 2.58